Location: Lake Runnemede Observatory
(43.4843°N, 72.3851°W)
Time: 17:15:54
(UTC-05:00)

Amateur Radio Satellites - All Passes

Search period start: 02 December 2016 16:45
Search period end: 03 December 2016 16:45
Location: Lake Runnemede Observatory, 43.4843°N, 72.3851°W

Satellite Date Start Highest point End Downlink Frequencies (MHz)
Time Altitude Azimuth
CUTE-I 02 Dec 16:51:15 16:56:28 54° 71° (ENE) 17:01:42 437.470
AO-7 02 Dec 16:59:44 17:01:07 10° 276° (W) 17:02:32 29.400- 29.500
ISS 02 Dec 17:00:52 17:03:43 27° 137° (SE) 17:06:36 145.825
GOMX 1 02 Dec 17:01:57 17:06:24 76° 258° (WSW) 17:11:13 467.674
BRITE-PL 02 Dec 17:06:33 17:10:09 27° 266° (W) 17:13:56 437.365/2234.400
AIST 2 02 Dec 17:13:10 17:17:21 57° 53° (NE) 17:21:30 435.215
RS-15 02 Dec 17:13:41 17:26:01 76° 242° (WSW) 17:37:56 29.354- 29.394
Cubesat XI-IV 02 Dec 17:15:40 17:21:03 86° 76° (ENE) 17:26:28 437.490
LilacSat-2 02 Dec 17:24:32 17:28:23 66° 259° (W) 17:32:14 437.200
KKS-1 02 Dec 17:24:35 17:27:47 20° 296° (WNW) 17:30:59 437.445
CUTE 1.7 + AOD 2 02 Dec 17:27:22 17:29:14 13° 62° (ENE) 17:31:08 437.475
NOAA 15 02 Dec 17:27:29 17:32:41 66° 258° (WSW) 17:37:55 137.62
DOVE 4 02 Dec 17:32:43 17:37:24 87° 257° (WSW) 17:42:26 437.250
HORYU 2 02 Dec 17:39:34 17:42:08 15° 269° (W) 17:44:43 437.375
STARS 02 Dec 17:41:31 17:45:10 25° 294° (WNW) 17:48:46 437.465
CANX-2 02 Dec 17:42:59 17:46:11 21° 66° (ENE) 17:49:22 2200.000
CINEMA 3 02 Dec 17:43:47 17:48:12 35° 68° (ENE) 17:52:43 145.822/145.860
HO-68 02 Dec 17:45:08 17:51:41 40° 63° (ENE) 17:58:14 435.675
CUBESAT XI-V 02 Dec 17:52:52 17:56:49 28° 293° (WNW) 18:00:46 437.345
NOAA 18 02 Dec 18:06:12 18:11:34 52° 259° (W) 18:17:00 137.9125
Cosmos 2491 02 Dec 18:07:40 18:16:26 76° 81° (E) 18:25:08 435.465 / 435.565
O/OREOS (USA 219) 02 Dec 18:08:58 18:11:46 16° 309° (NW) 18:14:35 437.305
AAUSAT CUBESAT 2 02 Dec 18:10:27 18:12:21 13° 62° (ENE) 18:14:15 437.432
STRAND 1 02 Dec 18:15:19 18:19:08 21° 93° (E) 18:22:55 437.568
SEEDS 02 Dec 18:16:28 18:20:01 28° 69° (ENE) 18:23:35 437.485
Cosmos 2504 02 Dec 18:28:27 18:34:01 20° 76° (ENE) 18:39:46 435.465 / 435.565
CUBEBUG 2 02 Dec 18:29:22 18:33:21 27° 67° (ENE) 18:37:19 437.445
CUTE-I 02 Dec 18:32:51 18:36:49 21° 268° (W) 18:40:49 437.470
COMPASS 1 02 Dec 18:34:35 18:38:09 29° 69° (ENE) 18:41:45 437.405
ZACube-1 02 Dec 18:36:29 18:38:40 13° 61° (ENE) 18:40:50 437.345
ISS 02 Dec 18:36:56 18:40:07 44° 335° (NNW) 18:43:20 145.825
YUBILEINY 02 Dec 18:37:52 18:46:04 49° 88° (E) 18:54:19 435.215
FUNcube-1 02 Dec 18:46:02 18:48:39 15° 63° (ENE) 18:51:16 145.935
AIST 2 02 Dec 18:52:50 18:55:23 16° 250° (WSW) 18:57:54 435.215
Cubesat XI-IV 02 Dec 18:59:34 19:01:48 12° 272° (W) 19:04:02 437.490
CUTE 1.7 + AOD 2 02 Dec 19:00:22 19:04:33 65° 259° (WSW) 19:08:45 437.475
PCSat 02 Dec 19:08:20 19:11:17 15° 35° (NE) 19:14:14 145.827
CANX-2 02 Dec 19:17:55 19:21:49 36° 263° (W) 19:25:43 2200.000
UWE-3 02 Dec 19:19:38 19:24:12 55° 73° (ENE) 19:28:44 435.000/436.395/437.385
Oscar 11 02 Dec 19:20:32 19:24:19 30° 69° (ENE) 19:28:05 145.826/435.025
CINEMA 3 02 Dec 19:21:06 19:25:19 29° 266° (W) 19:29:40 145.822/145.860
RS-15 02 Dec 19:28:46 19:36:15 19° 264° (W) 19:43:39 29.354- 29.394
HO-68 02 Dec 19:32:35 19:39:19 43° 262° (W) 19:46:06 435.675
DELFI C3 02 Dec 19:42:53 19:45:33 18° 66° (ENE) 19:48:13 145.870
AAUSAT CUBESAT 2 02 Dec 19:43:16 19:47:19 60° 259° (W) 19:51:24 437.432
SEEDS 02 Dec 19:52:11 19:55:40 26° 265° (W) 19:59:11 437.485
STRAND 1 02 Dec 19:53:39 19:58:35 49° 290° (WNW) 20:03:28 437.568
SO-50 02 Dec 19:53:56 19:57:37 22° 112° (ESE) 20:01:17 436.795
AIST 1 02 Dec 20:03:58 20:08:15 89° 125° (SE) 20:12:38
CUBEBUG 2 02 Dec 20:05:27 20:09:48 35° 264° (W) 20:14:10 437.445
Cosmos 2491 02 Dec 20:05:54 20:12:18 24° 281° (W) 20:18:43 435.465 / 435.565
ZACube-1 02 Dec 20:09:47 20:14:21 73° 258° (WSW) 20:18:54 437.345
CUSAT 1 02 Dec 20:10:13 20:13:22 44° 79° (ENE) 20:17:22 437.405
COMPASS 1 02 Dec 20:10:20 20:13:42 24° 266° (W) 20:17:05 437.405
ISS 02 Dec 20:14:39 20:17:13 20° 355° (N) 20:19:46 145.825
Cosmos 2504 02 Dec 20:17:51 20:26:06 88° 278° (W) 20:34:57 435.465 / 435.565
FUNcube-1 02 Dec 20:19:54 20:24:25 62° 260° (W) 20:28:54 145.935
YUBILEINY 02 Dec 20:35:01 20:43:00 39° 289° (WNW) 20:51:06 435.215
HUMSAT D 02 Dec 20:37:07 20:41:03 39° 71° (ENE) 20:44:58 437.325/437.525
ANTELSAT 02 Dec 20:48:23 20:49:34 11° 88° (E) 20:50:46 437.575/2403.000
TIGRISAT 02 Dec 20:48:41 20:49:07 10° 87° (E) 20:49:32 435.000
PCSat 02 Dec 20:50:20 20:55:46 66° 57° (ENE) 21:01:09 145.827
PRISM 02 Dec 20:53:12 20:57:18 56° 101° (E) 21:01:23 437.425
Oscar 11 02 Dec 20:56:49 21:00:26 26° 265° (W) 21:04:03 145.826/435.025
UWE-3 02 Dec 20:58:00 21:00:57 16° 269° (W) 21:03:54 435.000/436.395/437.385
DELFI C3 02 Dec 21:16:27 21:20:05 37° 262° (W) 21:23:45 145.870
SO-50 02 Dec 21:33:10 21:37:48 49° 309° (NW) 21:42:23 436.795
CUBEBUG 1 02 Dec 21:47:39 21:50:59 22° 65° (ENE) 21:54:22 437.445
VELOX 1 02 Dec 21:49:07 21:51:54 17° 62° (ENE) 21:54:41 145.980
UNISAT 6 02 Dec 21:50:43 21:55:06 53° 100° (E) 21:59:20 437.425
ISS 02 Dec 21:51:40 21:54:30 25° 15° (NNE) 21:57:19 145.825
CUSAT 1 02 Dec 21:54:28 21:55:09 10° 267° (W) 21:55:52 437.405
DANDE 02 Dec 22:00:44 22:03:03 26° 263° (W) 22:05:38 436.750
HUMSAT D 02 Dec 22:13:46 22:16:48 19° 267° (W) 22:19:49 437.325/437.525
Cosmos 2504 02 Dec 22:14:59 22:20:54 20° 300° (WNW) 22:27:04 435.465 / 435.565
DX 1 02 Dec 22:15:14 22:18:02 17° 63° (ENE) 22:20:50 434.975-435.025
50 SAT 02 Dec 22:18:04 22:20:45 21° 68° (ENE) 22:23:27 437.505
TIGRISAT 02 Dec 22:21:56 22:26:24 77° 285° (WNW) 22:30:44 435.000
POPSAT HIP 1 02 Dec 22:22:02 22:23:46 12° 90° (E) 22:25:30 437.405
ANTELSAT 02 Dec 22:22:23 22:26:51 72° 284° (WNW) 22:31:09 437.575/2403.000
ESTCUBE 1 02 Dec 22:23:31 22:27:59 83° 77° (ENE) 22:32:30 437.505/2401.250
UKube-1 02 Dec 22:29:49 22:32:44 18° 63° (ENE) 22:35:39 .
PRISM 02 Dec 22:29:55 22:32:09 14° 298° (WNW) 22:34:23 437.425
PCSat 02 Dec 22:34:55 22:38:36 19° 255° (WSW) 22:42:17 145.827
AISAT 02 Dec 22:46:18 22:50:40 65° 74° (ENE) 22:55:05 437.250
SPROUT 02 Dec 22:49:10 22:53:12 42° 71° (ENE) 22:57:17 437.525
JAS-2 02 Dec 22:51:03 22:55:54 39° 98° (E) 23:00:50 435.910
GONETS M04 02 Dec 23:17:30 23:23:24 21° 78° (ENE) 23:29:17
NANOSAT C BR1 02 Dec 23:17:34 23:21:41 47° 99° (E) 23:25:45 145.865
SO-50 02 Dec 23:17:51 23:19:23 11° 330° (NNW) 23:20:54 436.795
QB50P2 02 Dec 23:19:36 23:23:49 58° 101° (E) 23:27:59 145.880/145.840
BUGSAT 1 02 Dec 23:19:46 23:22:39 18° 92° (E) 23:25:31 437.445
POLYITAN 1 02 Dec 23:20:16 23:24:28 55° 100° (E) 23:28:36 437.675
CUBEBUG 1 02 Dec 23:23:01 23:27:02 37° 262° (W) 23:31:08 437.445
VELOX 1 02 Dec 23:23:37 23:27:55 53° 260° (W) 23:32:17 145.980
ISS 02 Dec 23:27:59 23:31:19 85° 213° (SSW) 23:34:37 145.825
UNISAT 6 02 Dec 23:28:34 23:31:22 17° 297° (WNW) 23:34:07 437.425
Cosmos 2499 02 Dec 23:30:41 23:37:30 28° 81° (E) 23:44:34 435.465 / 435.565
QB50P1 02 Dec 23:34:32 23:38:49 80° 104° (ESE) 23:43:02 145.935-145.965
DUCHIFAT 1 02 Dec 23:41:42 23:45:57 82° 102° (ESE) 23:50:10 145.980
DX 1 02 Dec 23:49:36 23:53:49 50° 260° (W) 23:58:05 434.975-435.025
50 SAT 02 Dec 23:51:03 23:53:57 24° 264° (W) 23:56:51 437.505
POPSAT HIP 1 02 Dec 23:55:44 23:59:57 61° 287° (WNW) 00:04:07 437.405
UKube-1 03 Dec 00:04:16 00:08:25 46° 260° (W) 00:12:36 .
SWISSCUBE 03 Dec 00:08:37 00:11:15 15° 60° (ENE) 00:13:52 437.505
BEESAT 03 Dec 00:13:05 00:15:42 15° 60° (ENE) 00:18:19 436.000
Oscar 19 03 Dec 00:20:36 00:24:29 21° 93° (E) 00:28:21 437.125/150
TISAT 1 03 Dec 00:24:12 00:28:26 78° 75° (ENE) 00:32:42 437.305
AISAT 03 Dec 00:25:40 00:27:34 12° 270° (W) 00:29:28 437.250
SPROUT 03 Dec 00:26:19 00:29:19 18° 268° (W) 00:32:21 437.525
AUBIESAT-1 03 Dec 00:33:36 00:37:15 32° 63° (ENE) 00:41:08 437.475
JAS-2 03 Dec 00:36:36 00:40:53 26° 296° (WNW) 00:45:11 435.910
ITUPSAT 1 03 Dec 00:36:49 00:40:36 24° 64° (ENE) 00:44:23 437.325
M-CUBED/EXP-1 PRIME 03 Dec 00:42:19 00:46:11 48° 66° (ENE) 00:50:23 437.505
BUGSAT 1 03 Dec 00:54:14 00:58:12 41° 289° (WNW) 01:02:07 437.445
NANOSAT C BR1 03 Dec 00:54:17 00:57:02 17° 296° (WNW) 00:59:46 145.865
QB50P2 03 Dec 00:56:49 00:59:08 14° 298° (WNW) 01:01:27 145.880/145.840
POLYITAN 1 03 Dec 00:57:22 00:59:47 15° 298° (WNW) 01:02:13 437.675
O/OREOS (USA 219) 03 Dec 00:57:51 01:01:01 19° 53° (NE) 01:04:11 437.305
ISS 03 Dec 01:06:16 01:07:20 11° 230° (SW) 01:08:23 145.825
GONETS M04 03 Dec 01:10:19 01:19:04 85° 278° (W) 01:27:50
QB50P1 03 Dec 01:12:46 01:13:56 11° 300° (WNW) 01:15:05 145.935-145.965
DUCHIFAT 1 03 Dec 01:20:03 01:20:59 11° 300° (WNW) 01:21:53 145.980
Cosmos 2499 03 Dec 01:21:25 01:29:51 69° 282° (WNW) 01:38:44 435.465 / 435.565
Gurwin Techsat 1B 03 Dec 01:25:38 01:30:42 42° 98° (E) 01:35:43 435.225
AO-85 03 Dec 01:37:25 01:40:56 20° 112° (ESE) 01:44:19 145.980
PHONESAT 2.4 03 Dec 01:41:31 01:43:19 16° 157° (SSE) 01:45:05 2401.200-2431.200
SWISSCUBE 03 Dec 01:43:41 01:48:27 71° 258° (WSW) 01:53:14 437.505
BEESAT 03 Dec 01:48:08 01:52:53 72° 257° (WSW) 01:57:41 436.000
MOZHAYETS 4 03 Dec 01:50:02 01:53:59 29° 68° (ENE) 01:57:55
Oscar 19 03 Dec 01:59:03 02:04:04 51° 290° (WNW) 02:09:05 437.125/150
AUBIESAT-1 03 Dec 02:08:22 02:11:42 24° 262° (W) 02:15:13 437.475
ITUPSAT 1 03 Dec 02:13:41 02:18:12 41° 262° (W) 02:22:43 437.325
M-CUBED/EXP-1 PRIME 03 Dec 02:18:29 02:20:59 16° 265° (W) 02:23:38 437.505
ITAMSAT 1 03 Dec 02:19:37 02:24:12 31° 96° (E) 02:28:44 435.822/435.867
O/OREOS (USA 219) 03 Dec 02:36:23 02:40:45 52° 252° (WSW) 02:45:04 437.305
KKS-1 03 Dec 02:46:06 02:50:23 48° 71° (ENE) 02:54:43 437.445
AO-7 03 Dec 02:58:40 03:06:35 44° 100° (E) 03:14:26 29.400- 29.500
STARS 03 Dec 03:02:27 03:06:26 34° 69° (ENE) 03:10:28 437.465
Gurwin Techsat 1B 03 Dec 03:06:01 03:10:26 27° 296° (WNW) 03:14:50 435.225
GONETS M04 03 Dec 03:11:30 03:17:18 19° 300° (WNW) 03:23:09
PHONESAT 2.4 03 Dec 03:15:41 03:18:13 38° 173° (S) 03:20:44 2401.200-2431.200
AO-85 03 Dec 03:16:16 03:21:05 56° 308° (NW) 03:25:33 145.980
CUBESAT XI-V 03 Dec 03:19:42 03:23:52 35° 69° (ENE) 03:28:02 437.345
Cosmos 2499 03 Dec 03:20:04 03:24:54 16° 305° (NW) 03:29:49 435.465 / 435.565
MOZHAYETS 4 03 Dec 03:27:02 03:31:04 30° 264° (W) 03:35:07
BRITE-PL 03 Dec 03:32:47 03:34:02 11° 87° (E) 03:35:18 437.365/2234.400
ITAMSAT 1 03 Dec 03:59:00 04:03:40 35° 293° (WNW) 04:08:19 435.822/435.867
SO-50 03 Dec 04:23:21 04:27:22 29° 45° (NE) 04:31:17 436.795
KKS-1 03 Dec 04:24:15 04:27:12 17° 268° (W) 04:30:10 437.445
STARS 03 Dec 04:39:15 04:42:50 24° 265° (W) 04:46:27 437.465
YUBILEINY 03 Dec 04:46:36 04:53:41 26° 64° (ENE) 05:00:42 435.215
PHONESAT 2.4 03 Dec 04:50:47 04:53:15 35° 190° (S) 04:55:44 2401.200-2431.200
AO-7 03 Dec 04:51:31 04:59:22 47° 299° (WNW) 05:07:13 29.400- 29.500
BEESAT 3 03 Dec 04:53:49 04:56:50 22° 113° (ESE) 04:59:52 437.485
CUBESAT XI-V 03 Dec 04:57:34 05:01:18 24° 266° (W) 05:05:04 437.345
LilacSat-2 03 Dec 04:58:31 05:00:00 12° 90° (E) 05:01:28 437.200
AO-85 03 Dec 05:00:49 05:02:24 11° 327° (NNW) 05:03:56 145.980
GOMX 1 03 Dec 05:02:03 05:06:58 34° 95° (E) 05:11:55 467.674
BRITE-PL 03 Dec 05:07:49 05:13:09 81° 103° (ESE) 05:18:46 437.365/2234.400
CUTE-I 03 Dec 05:08:01 05:11:46 19° 92° (E) 05:15:31 437.470
BEESAT 2 03 Dec 05:15:51 05:18:28 17° 111° (ESE) 05:21:06 435.950
Cosmos 2491 03 Dec 05:17:54 05:23:01 17° 75° (ENE) 05:28:05 435.465 / 435.565
HORYU 2 03 Dec 05:26:50 05:31:18 86° 285° (WNW) 05:35:44 437.375
DOVE 4 03 Dec 05:30:39 05:35:10 27° 93° (E) 05:39:35 437.250
STRAND 1 03 Dec 05:32:00 05:36:37 34° 67° (ENE) 05:41:14 437.568
Cubesat XI-IV 03 Dec 05:32:07 05:36:51 31° 96° (E) 05:41:33 437.490
RS-15 03 Dec 05:32:38 05:38:26 15° 94° (E) 05:44:20 29.354- 29.394
NOAA 15 03 Dec 05:41:25 05:46:24 42° 98° (E) 05:51:24 137.62
SO-50 03 Dec 06:03:43 06:07:53 37° 243° (WSW) 06:11:59 436.795
Cosmos 2504 03 Dec 06:09:27 06:17:41 40° 70° (ENE) 06:25:32 435.465 / 435.565
AIST 1 03 Dec 06:10:05 06:13:45 25° 73° (ENE) 06:17:23
PHONESAT 2.4 03 Dec 06:26:48 06:28:06 13° 206° (SSW) 06:29:24 2401.200-2431.200
NOAA 18 03 Dec 06:26:50 06:32:21 61° 102° (ESE) 06:37:48 137.9125
BEESAT 3 03 Dec 06:30:36 06:34:14 36° 311° (NW) 06:37:56 437.485
LilacSat-2 03 Dec 06:30:56 06:34:36 49° 287° (WNW) 06:38:14 437.200
GOMX 1 03 Dec 06:40:05 06:44:58 36° 292° (WNW) 06:49:55 467.674
YUBILEINY 03 Dec 06:42:35 06:51:23 75° 266° (W) 07:00:11 435.215
CUTE 1.7 + AOD 2 03 Dec 06:44:45 06:47:48 19° 93° (E) 06:50:51 437.475
CUTE-I 03 Dec 06:46:58 06:52:11 58° 289° (WNW) 06:57:23 437.470
AO-7 03 Dec 06:47:18 06:50:04 12° 321° (NW) 06:52:50 29.400- 29.500
BRITE-PL 03 Dec 06:47:54 06:51:02 16° 298° (WNW) 06:54:14 437.365/2234.400
BEESAT 2 03 Dec 06:52:06 06:55:54 46° 309° (NW) 06:59:47 435.950
HO-68 03 Dec 06:58:35 07:05:08 36° 97° (E) 07:11:39 435.675
CANX-2 03 Dec 07:01:26 07:05:16 33° 97° (E) 07:09:06 2200.000
DOVE 4 03 Dec 07:07:57 07:12:56 41° 290° (WNW) 07:17:49 437.250
Cosmos 2491 03 Dec 07:09:38 07:18:25 84° 96° (E) 07:27:14 435.465 / 435.565
STRAND 1 03 Dec 07:11:15 07:15:47 31° 264° (W) 07:20:20 437.568
Cubesat XI-IV 03 Dec 07:12:05 07:16:56 36° 293° (WNW) 07:21:45 437.490
CINEMA 3 03 Dec 07:13:58 07:18:53 69° 101° (E) 07:23:32 145.822/145.860
NOAA 15 03 Dec 07:21:36 07:25:59 27° 296° (WNW) 07:30:21 137.62
AAUSAT CUBESAT 2 03 Dec 07:24:56 07:27:52 19° 93° (E) 07:30:48 437.432
SEEDS 03 Dec 07:33:54 07:37:56 45° 99° (E) 07:41:56 437.485
RS-15 03 Dec 07:36:45 07:48:18 67° 116° (ESE) 08:00:24 29.354- 29.394
PRISM 03 Dec 07:43:27 07:47:20 46° 72° (ENE) 07:51:15 437.425
TIGRISAT 03 Dec 07:47:25 07:49:33 13° 60° (ENE) 07:51:41 435.000
AIST 1 03 Dec 07:47:30 07:51:20 30° 270° (W) 07:55:10
ANTELSAT 03 Dec 07:47:43 07:50:05 14° 61° (ENE) 07:52:27 437.575/2403.000
COMPASS 1 03 Dec 07:50:51 07:54:52 46° 99° (E) 07:58:52 437.405
CUBEBUG 2 03 Dec 07:54:59 07:59:18 46° 98° (E) 08:03:26 437.445
ZACube-1 03 Dec 07:58:00 08:01:04 19° 92° (E) 08:04:05 437.345
Cosmos 2504 03 Dec 08:02:51 08:11:15 49° 272° (W) 08:19:14 435.465 / 435.565
FUNcube-1 03 Dec 08:07:29 08:10:49 22° 93° (E) 08:14:06 145.935
NOAA 18 03 Dec 08:08:27 08:12:32 21° 300° (WNW) 08:16:35 137.9125
CUTE 1.7 + AOD 2 03 Dec 08:19:52 08:23:47 37° 289° (WNW) 08:27:40 437.475
CANX-2 03 Dec 08:37:40 08:40:57 22° 293° (WNW) 08:44:13 2200.000
Oscar 11 03 Dec 08:41:53 08:46:05 51° 100° (E) 08:50:16 145.826/435.025
YUBILEINY 03 Dec 08:42:14 08:46:34 15° 286° (WNW) 08:50:55 435.215
UWE-3 03 Dec 08:44:34 08:48:57 80° 285° (WNW) 08:53:11 435.000/436.395/437.385
HO-68 03 Dec 08:46:09 08:52:59 47° 295° (WNW) 08:59:46 435.675
AIST 2 03 Dec 08:49:28 08:53:34 82° 125° (SE) 08:57:45 435.215
UNISAT 6 03 Dec 08:49:58 08:54:33 54° 73° (ENE) 08:59:07 437.425
CINEMA 3 03 Dec 08:52:33 08:55:22 16° 299° (WNW) 08:58:08 145.822/145.860
DELFI C3 03 Dec 08:52:35 08:55:49 23° 95° (E) 08:59:01 145.870
AAUSAT CUBESAT 2 03 Dec 08:59:39 09:03:29 37° 289° (WNW) 09:07:18 437.432
JAS-2 03 Dec 09:05:06 09:09:59 23° 63° (ENE) 09:14:29 435.910
Cosmos 2491 03 Dec 09:09:50 09:16:23 23° 298° (WNW) 09:22:59 435.465 / 435.565
SEEDS 03 Dec 09:10:33 09:13:17 17° 295° (WNW) 09:16:00 437.485
CUSAT 1 03 Dec 09:15:05 09:18:20 39° 98° (E) 09:21:04 437.405
POPSAT HIP 1 03 Dec 09:16:09 09:17:50 12° 61° (ENE) 09:19:31 437.405
PRISM 03 Dec 09:20:30 09:22:53 15° 268° (W) 09:25:16 437.425
TIGRISAT 03 Dec 09:20:55 09:25:37 79° 258° (WSW) 09:30:18 435.000
ANTELSAT 03 Dec 09:21:30 09:26:12 74° 258° (WSW) 09:30:53 437.575/2403.000
Cosmos 2499 03 Dec 09:22:47 09:24:32 11° 49° (NE) 09:26:15 435.465 / 435.565
GONETS M04 03 Dec 09:27:03 09:28:20 10° 50° (NE) 09:29:36
COMPASS 1 03 Dec 09:27:27 09:30:04 16° 296° (WNW) 09:32:41 437.405
DANDE 03 Dec 09:28:04 09:31:35 20° 95° (E) 09:34:32 436.750
CUBEBUG 2 03 Dec 09:32:28 09:35:32 19° 297° (WNW) 09:38:33 437.445
ZACube-1 03 Dec 09:33:32 09:37:31 38° 290° (WNW) 09:41:24 437.345
FUNcube-1 03 Dec 09:43:18 09:47:07 33° 291° (WNW) 09:50:52 145.935
RS-15 03 Dec 09:50:10 10:01:33 47° 322° (NW) 10:13:21 29.354- 29.394
HUMSAT D 03 Dec 09:54:24 09:58:27 62° 100° (E) 10:02:29 437.325/437.525
AO-85 03 Dec 10:07:07 10:10:16 21° 42° (NE) 10:13:19 145.980
NANOSAT C BR1 03 Dec 10:10:28 10:14:28 40° 71° (ENE) 10:18:28 145.865
BUGSAT 1 03 Dec 10:10:57 10:13:32 16° 63° (ENE) 10:16:07 437.445
QB50P2 03 Dec 10:12:56 10:17:04 49° 72° (ENE) 10:21:13 145.880/145.840
POLYITAN 1 03 Dec 10:13:34 10:17:42 47° 72° (ENE) 10:21:50 437.675
ESTCUBE 1 03 Dec 10:15:57 10:18:44 16° 91° (E) 10:21:31 437.505/2401.250
Oscar 11 03 Dec 10:19:09 10:21:49 16° 296° (WNW) 10:24:28 145.826/435.025
DELFI C3 03 Dec 10:27:12 10:30:36 28° 291° (WNW) 10:34:00 145.870
QB50P1 03 Dec 10:27:34 10:31:49 67° 73° (ENE) 10:36:04 145.935-145.965
UNISAT 6 03 Dec 10:28:33 10:31:33 17° 269° (W) 10:34:34 437.425
AIST 2 03 Dec 10:30:08 10:32:36 15° 322° (NW) 10:35:06 435.215
DUCHIFAT 1 03 Dec 10:34:07 10:38:21 68° 75° (ENE) 10:42:36 145.980
AISAT 03 Dec 10:37:30 10:38:55 11° 89° (E) 10:40:21 437.250
HO-68 03 Dec 10:38:40 10:38:57 10° 316° (NW) 10:39:13 435.675
JAS-2 03 Dec 10:48:07 10:54:44 62° 258° (WSW) 11:00:36 435.910
POPSAT HIP 1 03 Dec 10:48:44 10:53:01 73° 258° (WSW) 10:57:20 437.405
DANDE 03 Dec 11:09:44 11:14:13 34° 282° (WNW) 11:17:42 436.750
CUBEBUG 1 03 Dec 11:10:03 11:14:09 35° 97° (E) 11:18:13 437.445
Cosmos 2499 03 Dec 11:11:46 11:20:14 51° 74° (ENE) 11:28:08 435.465 / 435.565
Gurwin Techsat 1B 03 Dec 11:12:19 11:14:01 12° 55° (NE) 11:15:44 435.225
VELOX 1 03 Dec 11:12:43 11:16:27 26° 95° (E) 11:20:11 145.980
50 SAT 03 Dec 11:15:51 11:18:32 20° 95° (E) 11:21:13 437.505
GONETS M04 03 Dec 11:19:12 11:27:40 52° 75° (ENE) 11:36:06
HUMSAT D 03 Dec 11:31:48 11:33:33 12° 298° (WNW) 11:35:18 437.325/437.525
PCSat 03 Dec 11:33:04 11:38:13 47° 113° (ESE) 11:43:24 145.827
DX 1 03 Dec 11:36:51 11:40:28 25° 95° (E) 11:44:03 434.975-435.025
Oscar 19 03 Dec 11:38:21 11:42:56 34° 67° (ENE) 11:47:33 437.125/150
BUGSAT 1 03 Dec 11:44:21 11:48:28 51° 260° (W) 11:52:38 437.445
AO-85 03 Dec 11:47:06 11:50:51 41° 242° (WSW) 11:54:30 145.980
NANOSAT C BR1 03 Dec 11:47:19 11:50:21 19° 267° (W) 11:53:23 145.865
UKube-1 03 Dec 11:50:18 11:53:56 25° 95° (E) 11:57:32 .
QB50P2 03 Dec 11:50:34 11:53:08 15° 269° (W) 11:55:43 145.880/145.840
POLYITAN 1 03 Dec 11:51:02 11:53:44 16° 268° (W) 11:56:27 437.675
ESTCUBE 1 03 Dec 11:51:27 11:55:51 52° 288° (WNW) 12:00:14 437.505/2401.250
QB50P1 03 Dec 12:06:36 12:08:01 11° 271° (W) 12:09:26 145.935-145.965
RS-15 03 Dec 12:08:20 12:18:16 27° 355° (N) 12:28:18 29.354- 29.394
SPROUT 03 Dec 12:09:14 12:13:33 69° 102° (ESE) 12:17:49 437.525
TISAT 1 03 Dec 12:09:20 12:10:29 11° 89° (E) 12:11:37 437.305
AO-7 03 Dec 12:10:51 12:15:36 17° 44° (NE) 12:20:21 29.400- 29.500
AISAT 03 Dec 12:11:24 12:15:53 73° 287° (WNW) 12:20:20 437.250
DUCHIFAT 1 03 Dec 12:13:11 12:14:29 11° 271° (W) 12:15:46 145.980
CUBEBUG 1 03 Dec 12:46:42 12:50:14 24° 294° (WNW) 12:53:45 437.445
Gurwin Techsat 1B 03 Dec 12:47:45 12:53:03 75° 73° (ENE) 12:58:23 435.225
50 SAT 03 Dec 12:48:50 12:51:50 26° 291° (WNW) 12:54:48 437.505
VELOX 1 03 Dec 12:48:56 12:52:55 32° 292° (WNW) 12:56:53 145.980
Cosmos 2499 03 Dec 13:05:22 13:13:03 37° 276° (W) 13:20:18 435.465 / 435.565
BEESAT 3 03 Dec 13:09:03 13:12:15 22° 44° (NE) 13:15:25 437.485
DX 1 03 Dec 13:12:45 13:16:40 32° 292° (WNW) 13:20:35 434.975-435.025
GONETS M04 03 Dec 13:16:31 13:24:10 36° 275° (W) 13:31:51
PCSat 03 Dec 13:17:04 13:21:48 30° 313° (NW) 13:26:34 145.827
Oscar 19 03 Dec 13:17:45 13:22:15 31° 264° (W) 13:26:48 437.125/150
UKube-1 03 Dec 13:26:08 13:29:57 31° 292° (WNW) 13:33:46 .
BEESAT 2 03 Dec 13:31:35 13:34:33 19° 42° (NE) 13:37:30 435.950
ITAMSAT 1 03 Dec 13:38:28 13:43:32 54° 71° (ENE) 13:48:37 435.822/435.867
TISAT 1 03 Dec 13:42:21 13:46:34 68° 286° (WNW) 13:50:45 437.305
SWISSCUBE 03 Dec 13:43:04 13:47:03 26° 95° (E) 13:51:01 437.505
AUBIESAT-1 03 Dec 13:45:13 13:48:47 22° 98° (E) 13:52:15 437.475
SPROUT 03 Dec 13:47:02 13:48:54 13° 299° (WNW) 13:50:46 437.525
BEESAT 03 Dec 13:47:28 13:51:27 26° 95° (E) 13:55:24 436.000
M-CUBED/EXP-1 PRIME 03 Dec 13:54:17 13:58:32 33° 101° (E) 14:02:40 437.505
AO-7 03 Dec 13:58:39 14:06:49 65° 66° (ENE) 14:15:01 29.400- 29.500
ITUPSAT 1 03 Dec 14:12:37 14:17:12 45° 99° (E) 14:21:44 437.325
RS-15 03 Dec 14:24:26 14:35:40 37° 29° (NNE) 14:46:42 29.354- 29.394
Gurwin Techsat 1B 03 Dec 14:30:44 14:33:34 14° 271° (W) 14:36:25 435.225
BRITE-PL 03 Dec 14:45:50 14:46:58 11° 58° (ENE) 14:48:07 437.365/2234.400
BEESAT 3 03 Dec 14:46:16 14:50:02 41° 242° (WSW) 14:53:47 437.485
HORYU 2 03 Dec 14:52:25 14:54:06 12° 59° (ENE) 14:55:48 437.375
BEESAT 2 03 Dec 15:08:42 15:12:39 53° 240° (WSW) 15:16:33 435.950
O/OREOS (USA 219) 03 Dec 15:12:23 15:15:03 15° 99° (E) 15:17:42 437.305
AUBIESAT-1 03 Dec 15:18:56 15:23:19 43° 295° (WNW) 15:27:35 437.475
ITAMSAT 1 03 Dec 15:19:31 15:23:19 20° 268° (W) 15:27:07 435.822/435.867
MOZHAYETS 4 03 Dec 15:20:02 15:24:32 56° 100° (E) 15:29:00
SWISSCUBE 03 Dec 15:20:35 15:24:53 35° 292° (WNW) 15:29:11 437.505
BEESAT 03 Dec 15:24:57 15:29:17 35° 292° (WNW) 15:33:35 436.000
NOAA 15 03 Dec 15:27:20 15:28:54 11° 55° (NE) 15:30:29 137.62
M-CUBED/EXP-1 PRIME 03 Dec 15:28:47 15:32:53 30° 298° (WNW) 15:36:54 437.505
AIST 2 03 Dec 15:32:40 15:34:40 13° 35° (NE) 15:36:41 435.215
ITUPSAT 1 03 Dec 15:51:08 15:54:44 22° 296° (WNW) 15:58:20 437.325
AO-7 03 Dec 15:53:06 16:00:05 30° 265° (W) 16:07:09 29.400- 29.500
ISS 03 Dec 16:09:59 16:12:01 15° 133° (SE) 16:14:04 145.825
GOMX 1 03 Dec 16:11:35 16:15:39 34° 68° (ENE) 16:20:02 467.674
KKS-1 03 Dec 16:11:59 16:16:31 83° 105° (ESE) 16:20:58 437.445
NOAA 18 03 Dec 16:15:53 16:19:47 20° 60° (ENE) 16:23:43 137.9125
BRITE-PL 03 Dec 16:20:26 16:24:41 82° 257° (WSW) 16:29:13 437.365/2234.400
HORYU 2 03 Dec 16:25:30 16:30:01 81° 259° (WSW) 16:34:31 437.375
STARS 03 Dec 16:26:19 16:30:41 55° 101° (E) 16:35:00 437.465
CUTE-I 03 Dec 16:30:31 16:35:23 36° 67° (ENE) 16:40:15 437.470
DOVE 4 03 Dec 16:37:07 16:41:10 28° 66° (ENE) 16:45:26 437.250
